133P/(7968) Elst-Pizarro (2007)

Japanese version
Home page
Total 6,336 html files since Dec. 4, 1995
Updated on December 29, 2007

---------------------------------------------------------------------

* Profile

* Orbital Elements

Perturbed ephemeris below is based on elements from CCO 14. 

 Epoch = 2454280.50000 TT   T = 2454280.85938 TT
 Peri. =  132.06733         a =     3.1583849 AU
 Node  =  160.18540 J2000.0 e =     0.1635761
 Incl. =    1.38614         q =     2.6417487 AU

* Finding Charts

* Magnitudes Graph

        H = 15.5  G = 0.15

---------------------------------------------------------------------

The orbital elements are calculated using the Minor Planet & Comet Ephemeris Service.
The charts are made with StellaNavigator Ver.2.0 for Windows (AstroArts / ASCII).
The magnitudes graphs are made with Comet for Windows.

---------------------------------------------------------------------

Copyright(C) 1995-2008 Seiichi Yoshida (comet@aerith.net). All rights reserved.